Location: Newark
(35.0167°N, 135.7667°E)
Time: 20:00:43
(UTC+00:00)

N. Korean satellite - Pass Details

Date: 25 October 2019
Orbit: 456 x 506 km, 97.2° (Epoch: 14 November)

Event Time Altitude Azimuth Distance (km) Brightness Sun altitude
Rises 19:59:31 0° 30° (NNE) 2,583 10.6 -15.4°
Reaches altitude 10° 20:02:04 10° 48° (NE) 1,704 9.9 -14.9°
Maximum altitude 20:04:44 19° 95° (E) 1,243 9.8 -14.3°
Drops below altitude 10° 20:07:24 10° 142° (SE) 1,707 10.0 -13.8°
Sets 20:09:57 0° 160° (SSE) 2,590 10.6 -13.3°
